This demonstration page uses our WeatherBlox Daily Observations layout. Learn more.

Left ArrowRight Arrow

39.51506, -84.39828

Hourly Observations for January 4, 2015

Temp ( °F °C ) Dew Point ( °F °C ) Humidity (%) Winds ( mph kmh ) Pressure ( in mb ) Visibility ( mi km ) Precip ( " mm )
12:14 am 00:14 Cloudy with Light Rain 59 15 57 13.9 93 93 S 15 24 29.74 1007 5 8 0.00 0.03
12:36 am 00:36 Cloudy with Light Rain 58 14.4 57 13.9 97 97 SSW 12 19 29.77 1008 3 4 0.01 0.25
12:53 am 00:53 Cloudy with Light Rain 58 14.4 57 13.9 97 97 SSW 8 13 29.75 1008 3 5 0.01 0.25
1:09 am 01:09 Cloudy with Light Rain 58 14.4 57 13.9 97 97 SSW 8 13 29.74 1007 3 5 0.02 0.51
1:22 am 01:22 Cloudy with Light Rain 58 14.4 57 13.9 97 97 SSW 9 15 29.74 1007 3 5 0.03 0.76
1:53 am 01:53 Cloudy with Mist and Fog 58 14.4 57 13.9 97 97 SSW 9 15 29.73 1007 3 5 0.04 1.02
2:02 am 02:02 Cloudy with Light Rain 57 13.9 57 13.9 100 100 S 12 19 29.74 1007 3 4 0.02 0.51
2:12 am 02:12 Cloudy with Light Rain 57 13.9 57 13.9 100 100 SSW 10 17 29.71 1006 3 5 0.03 0.76
2:19 am 02:19 Cloudy with Heavy Rain 58 14.4 57 13.9 97 97 SSW 10 17 29.71 1006 2 3 0.08 2.03
2:33 am 02:33 Cloudy with Rain 58 14.4 57 13.9 97 97 SW 9 15 29.74 1007 2 3 0.14 3.56
2:53 am 02:53 Cloudy with Light Rain 56 13.3 56 13.3 100 100 W 8 13 29.72 1007 3 4 0.19 4.83
3:06 am 03:06 Cloudy with Light Rain 56 13.3 55 12.8 97 97 WSW 8 13 29.71 1006 3 5 0.03 0.76
3:30 am 03:30 Cloudy with Light Rain 56 13.3 55 12.8 97 97 SW 7 11 29.71 1006 4 6 0.05 1.27
3:38 am 03:38 Cloudy with Rain 56 13.3 55 12.8 97 97 WSW 8 13 29.71 1006 3 5 0.07 1.78
3:53 am 03:53 Cloudy with Rain 56 13.3 55 12.8 97 97 WSW 6 9 29.69 1005 5 8 0.08 2.03
4:18 am 04:18 Cloudy with Light Rain 55 12.8 54 12.2 96 96 WSW 8 13 29.68 1005 5 8 0.04 1.02
4:31 am 04:31 Cloudy with Light Rain 55 12.8 54 12.2 96 96 WSW 9 15 29.68 1005 4 6 0.05 1.27
4:49 am 04:49 Cloudy with Light Rain 55 13 54 12 94 94 SW 7 11 29.68 1005 3 5 0.06 1.52
4:50 am 04:50 Cloudy with Light Rain 55 12.8 54 12.2 96 96 SW 8 13 29.67 1005 3 5 0.06 1.52
5:04 am 05:04 Cloudy with Heavy Rain 55 12.8 54 12.2 96 96 WSW 10 17 29.68 1005 2 3 0.06 1.52
5:10 am 05:10 Cloudy with Rain 55 12.8 53 11.7 93 93 WSW 14 22 29.68 1005 3 5 0.08 2.03
5:17 am 05:17 Cloudy with Rain 55 12.8 53 11.7 93 93 WSW 13 20 29.68 1005 4 6 0.09 2.29
5:28 am 05:28 Cloudy with Rain 54 12.2 53 11.7 97 97 SW 14 22 29.68 1005 5 8 0.11 2.79
5:37 am 05:37 Cloudy with Light Rain 54 12.2 53 11.7 97 97 WSW 16 26 29.68 1005 5 8 0.13 3.30
5:53 am 05:53 Cloudy 53 11.7 52 11.1 96 96 WSW 13 20 29.69 1005 10 16 0.13 3.30
6:36 am 06:36 Cloudy 53 11.7 51 10.6 93 93 WSW 14 22 29.71 1006 10 16 0.00 0.00
6:53 am 06:53 Cloudy with Light Rain 50 10 47 8.3 89 89 W 29 46 29.73 1007 3 5 0.01 0.25
7:11 am 07:11 Cloudy 47 8.3 44 6.7 90 90 W 18 30 29.80 1009 8 13 0.00 0.03
7:25 am 07:25 Cloudy 47 8.3 43 6.1 86 86 W 18 30 29.80 1009 10 16 0.00 0.03
7:53 am 07:53 Cloudy 47 8.3 43 6.1 86 86 W 9 15 29.78 1008 10 16 0.00 0.03
8:00 am 08:00 Cloudy 46 7.8 43 6.1 89 89 WSW 12 19 29.80 1009 10 16 0.00 0.00
8:22 am 08:22 Partly Cloudy 46 7.8 41 5 83 83 WSW 16 26 29.83 1010 10 16 0.00 0.00
8:53 am 08:53 Cloudy 46 7.8 42 5.6 86 86 WSW 12 19 29.81 1010 10 16 0.00 0.00
9:04 am 09:04 Cloudy 46 7.8 42 5.6 86 86 SW 10 17 29.85 1011 10 16 0.00 0.00
9:15 am 09:15 Cloudy 46 7.8 42 5.6 86 86 WSW 13 20 29.85 1011 10 16 0.00 0.00
9:40 am 09:40 Cloudy 45 7.2 40 4.4 83 83 WSW 16 26 29.88 1012 10 16 0.00 0.00
9:53 am 09:53 Cloudy 45 7.2 40 4.4 83 83 WSW 16 26 29.85 1011 10 16 0.00 0.00
10:53 am 10:53 Cloudy 43 6.1 37 2.8 80 80 W 18 30 29.89 1012 10 16 0.00 0.00
11:53 am 11:53 Cloudy 40 4.4 33 0.6 77 77 W 17 28 29.91 1013 10 16 0.00 0.00
12:31 pm 12:31 Cloudy 40 4.4 33 0.6 77 77 WSW 16 26 29.94 1014 10 16 0.00 0.00
12:50 pm 12:50 Cloudy 39 4 34 1 81 81 WSW 16 26 29.94 1014 10 16 0.00 0.00
12:53 pm 12:53 Cloudy 40 4.4 32 0 73 73 WSW 13 20 29.91 1013 10 16 0.00 0.00
1:53 pm 13:53 Cloudy with Light Rain 38 3.3 34 1.1 86 86 W 14 22 29.92 1013 10 16 0.01 0.25
2:05 pm 14:05 Cloudy 38 3.3 33 0.6 83 83 W 15 24 30.00 1016 10 16 0.00 0.03
2:53 pm 14:53 Cloudy 37 2.8 31 -0.6 79 79 W 15 24 29.96 1015 10 16 0.00 0.03
3:53 pm 15:53 Cloudy 35 1.7 31 -0.6 85 85 W 16 26 30.02 1017 10 16 0.00 0.03
4:05 pm 16:05 Cloudy 36 2.2 31 -0.6 82 82 W 14 22 30.09 1019 9 14 0.00 0.00
4:17 pm 16:17 Cloudy with Light Snow 36 2.2 31 -0.6 82 82 W 12 19 30.09 1019 6 10 0.00 0.03
4:53 pm 16:53 Cloudy with Light Snow 35 1.7 30 -1.1 82 82 W 16 26 30.07 1018 4 6 0.00 0.03
5:53 pm 17:53 Cloudy with Light Snow 34 1.1 29 -1.7 82 82 W 17 28 30.13 1020 6 10 0.00 0.03
6:53 pm 18:53 Cloudy 33 0.6 27 -2.8 78 78 W 15 24 30.17 1022 10 16 0.00 0.03
7:53 pm 19:53 Cloudy 31 -0.6 24 -4.4 76 76 W 17 28 30.21 1023 10 16 0.00 0.00
8:26 pm 20:26 Cloudy 29 -1.7 23 -5 78 78 WNW 17 28 30.27 1025 10 16 0.00 0.00
8:46 pm 20:46 Cloudy 28 -2.2 22 -5.6 78 78 WNW 16 26 30.30 1026 10 16 0.00 0.00
8:53 pm 20:53 Cloudy 28 -2.2 22 -5.6 78 78 WNW 15 24 30.25 1025 10 16 0.00 0.00
9:53 pm 21:53 Cloudy 26 -3.3 18 -7.8 71 71 W 17 28 30.32 1027 10 16 0.00 0.00
10:53 pm 22:53 Cloudy 24 -4.4 16 -8.9 71 71 W 18 30 30.34 1027 10 16 0.00 0.00
11:53 pm 23:53 Cloudy 23 -5 15 -9.4 72 72 WNW 13 20 30.37 1028 10 16 0.00 0.00

Powered by AerisWeather